ASTRA 2G (40364 NORAD) Tracking and Keplerian Element Data

This shows tracking and keplerian element data for the satellite.

Feedback or suggestion? Click here.




ElementValue
Catalog40364
NameASTRA 2G
Epoch Orbit1920
Epoch Day89.66371973
Epoch Year2020
RAAN64.0207
Inclination0.0557
Eccentricity0.0004421
Argument of Perigee329.3792
Mean Anonmoly61.236
Mean Motion1.00273068
Decay Rate1.5E-06
L11 40364U 14089A 20089.66371973 .00000150 00000-0 00000-0 0 9996
L22 40364 0.0557 64.0207 0004421 329.3792 61.2360 1.00273068 19208

Live tracking and technical data element details for ASTRA 2G (NORAD 40364). ASTRA 2G can be tracked NOW for your location showing map with azimuth and elevation plus other details from your city location.

Track the satellite on the map from your city or location and see movement details for azimuth, elevation, latitude, longitude, range, height, and movement on the map or in text.







IsCatalogInMostPopularTable: catalog: 40364, numindb: 363
Update: records affected: 1



GetName: 40364 ASTRA 2G

Hit Count: updated at: Thu, 02 Apr 2020 03:21:01 GMT